Location: Bogotá
(4.6533°N, 74.0837°W)
Time: 11:59:17
(UTC+00:00)

ISS - Pass Details

Date: 04 March 2026
Orbit: 416 x 427 km, 51.6° (Epoch: 6 March)

Event Time Altitude Azimuth Distance (km) Brightness Sun altitude
Rises 23:48:45 0° 188° (S) 2,376 0.3 -10.6°
Reaches altitude 10° 23:51:25 10° 166° (SSE) 1,510 -1.0 -11.3°
Maximum altitude 23:53:39 16° 125° (SE) 1,175 -1.9 -11.8°
Enters shadow 23:54:10 16° 114° (ESE) 1,195 -2.0 -12.0°
